DLH403 KEWR-EDDF

Flight info

Callsign DLH403
Flight time N/A
Altitude 31000
Route MERIT DCT HFD DCT PUT DCT BOS DCT WHALE N93B SUPRY/M083F340 DCT 46N050W 48N040W 50N030W 51N020W DCT DINIM DCT ELSOX/M084F350 DCT ARKIL/N0481F350 DCT OXLOW DCT KONAN UL607 KOK DCT REMBA UL607 SPI T180 NIVNU T847 IMCOM IMCOM1B
Aircraft A346/H-SDE2E3FGHIJ3J4J5M1RWXY/LB1D1

Departure

Time 2026-04-24 11:04
Airport Newark Liberty International Airport (KEWR)

Arrival

Time N/A
Airport Frankfurt Main Airport (EDDF)
Time Latitude Longitude Altitude Speed Heading
2026-04-24 10:51 40.69133 -74.17358 30 ft 0 kts 322°
2026-04-24 10:54 40.69117 -74.17340 29 ft 4 kts 307°
2026-04-24 10:54 40.69109 -74.17317 29 ft 4 kts 273°
2026-04-24 10:55 40.69111 -74.17296 27 ft 4 kts 266°
2026-04-24 10:55 40.69107 -74.17281 27 ft 4 kts 295°
2026-04-24 10:55 40.69100 -74.17255 28 ft 4 kts 277°
2026-04-24 10:55 40.69102 -74.17233 26 ft 4 kts 238°
2026-04-24 10:56 40.69115 -74.17220 28 ft 4 kts 201°
2026-04-24 10:56 40.69140 -74.17207 29 ft 4 kts 204°
2026-04-24 10:56 40.69145 -74.17204 29 ft 0 kts 206°
2026-04-24 10:58 40.69139 -74.17208 28 ft 2 kts 206°
2026-04-24 10:58 40.69119 -74.17221 27 ft 4 kts 206°
2026-04-24 10:58 40.69083 -74.17244 22 ft 7 kts 206°
2026-04-24 10:59 40.69035 -74.17274 30 ft 9 kts 205°
2026-04-24 10:59 40.68977 -74.17311 30 ft 10 kts 205°
2026-04-24 10:59 40.68910 -74.17353 30 ft 11 kts 205°
2026-04-24 10:59 40.68834 -74.17400 30 ft 13 kts 205°
2026-04-24 11:00 40.68753 -74.17451 30 ft 14 kts 205°
2026-04-24 11:00 40.68665 -74.17506 31 ft 14 kts 205°
2026-04-24 11:00 40.68571 -74.17565 31 ft 15 kts 205°
2026-04-24 11:00 40.68475 -74.17625 31 ft 16 kts 205°
2026-04-24 11:01 40.68374 -74.17689 30 ft 16 kts 206°
2026-04-24 11:01 40.68272 -74.17754 30 ft 17 kts 206°
2026-04-24 11:01 40.68166 -74.17821 30 ft 17 kts 205°
2026-04-24 11:01 40.68059 -74.17890 30 ft 17 kts 207°
2026-04-24 11:02 40.67952 -74.17962 30 ft 17 kts 206°
2026-04-24 11:02 40.67881 -74.18001 30 ft 7 kts 182°
2026-04-24 11:02 40.67829 -74.17953 31 ft 11 kts 124°
2026-04-24 11:02 40.67796 -74.17870 30 ft 11 kts 116°
2026-04-24 11:03 40.67815 -74.17780 29 ft 12 kts 44°
2026-04-24 11:03 40.67901 -74.17719 28 ft 23 kts 26°
2026-04-24 11:03 40.68244 -74.17502 30 ft 84 kts 25°
2026-04-24 11:03 40.68944 -74.17059 31 ft 137 kts 25°
2026-04-24 11:04 40.69925 -74.16423 51 ft 175 kts 24°
2026-04-24 11:04 40.71049 -74.15669 427 ft 182 kts 26°
2026-04-24 11:04 40.72128 -74.14802 921 ft 186 kts 36°
2026-04-24 11:04 40.73136 -74.13721 1471 ft 187 kts 37°
2026-04-24 11:05 40.74146 -74.12584 1948 ft 194 kts 37°
2026-04-24 11:05 40.75224 -74.11384 2290 ft 211 kts 37°
2026-04-24 11:05 40.76313 -74.09950 2627 ft 232 kts 45°
2026-04-24 11:05 40.77399 -74.08249 3013 ft 251 kts 46°
2026-04-24 11:06 40.78538 -74.06436 3605 ft 259 kts 45°
2026-04-24 11:06 40.79707 -74.04583 4315 ft 263 kts 44°
2026-04-24 11:06 40.80887 -74.02732 4987 ft 268 kts 43°
2026-04-24 11:06 40.82116 -74.00829 5605 ft 274 kts 42°
2026-04-24 11:07 40.84642 -73.96938 6845 ft 282 kts 41°
2026-04-24 11:07 40.85916 -73.94980 7474 ft 284 kts 40°
2026-04-24 11:07 40.87204 -73.92998 8089 ft 284 kts 39°
2026-04-24 11:08 40.88509 -73.90998 8573 ft 287 kts 39°
2026-04-24 11:08 40.89829 -73.88979 9072 ft 291 kts 39°
2026-04-24 11:08 40.91144 -73.86961 9587 ft 293 kts 39°
2026-04-24 11:08 40.92479 -73.84907 10140 ft 295 kts 38°
2026-04-24 11:09 40.93837 -73.82823 10492 ft 304 kts 38°
2026-04-24 11:09 40.95253 -73.80661 10713 ft 316 kts 38°
2026-04-24 11:09 40.96732 -73.78394 10958 ft 329 kts 39°
2026-04-24 11:09 40.98239 -73.76076 11183 ft 341 kts 39°
2026-04-24 11:10 40.99828 -73.73630 11411 ft 354 kts 40°
2026-04-24 11:10 41.01441 -73.71140 11635 ft 366 kts 40°
2026-04-24 11:10 41.03128 -73.68527 11865 ft 377 kts 40°
2026-04-24 11:10 41.04855 -73.65845 12182 ft 385 kts 40°
2026-04-24 11:11 41.06605 -73.63117 12733 ft 387 kts 39°
2026-04-24 11:11 41.08337 -73.60416 13263 ft 389 kts 39°
2026-04-24 11:11 41.10108 -73.57662 13741 ft 392 kts 39°
2026-04-24 11:11 41.11893 -73.54889 14159 ft 396 kts 39°
2026-04-24 11:12 41.13668 -73.52132 14623 ft 398 kts 39°
2026-04-24 11:12 41.15480 -73.49311 15158 ft 400 kts 39°
2026-04-24 11:12 41.17296 -73.46482 15702 ft 403 kts 39°
2026-04-24 11:12 41.19130 -73.43623 16246 ft 406 kts 39°
2026-04-24 11:13 41.20946 -73.40783 16800 ft 409 kts 39°
2026-04-24 11:13 41.22795 -73.37894 17355 ft 412 kts 39°
2026-04-24 11:13 41.24666 -73.34971 17876 ft 415 kts 39°
2026-04-24 11:13 41.26545 -73.32033 18354 ft 418 kts 39°
2026-04-24 11:14 41.28442 -73.29061 18808 ft 421 kts 39°
2026-04-24 11:14 41.30327 -73.26103 19218 ft 425 kts 39°
2026-04-24 11:14 41.32253 -73.23082 19641 ft 428 kts 39°
2026-04-24 11:14 41.34188 -73.20041 20086 ft 431 kts 39°
2026-04-24 11:15 41.36129 -73.16954 20521 ft 436 kts 41°
2026-04-24 11:15 41.37984 -73.13695 20982 ft 443 kts 44°
2026-04-24 11:15 41.39691 -73.10303 21412 ft 450 kts 47°
2026-04-24 11:15 41.41327 -73.06696 21829 ft 455 kts 49°
2026-04-24 11:16 41.42949 -73.03025 22233 ft 459 kts 49°
2026-04-24 11:16 41.44565 -72.99346 22646 ft 461 kts 49°
2026-04-24 11:16 41.46176 -72.95675 23059 ft 464 kts 50°
2026-04-24 11:16 41.47816 -72.91932 23464 ft 468 kts 49°
2026-04-24 11:17 41.49470 -72.88166 23760 ft 472 kts 49°
2026-04-24 11:17 41.51143 -72.84361 24086 ft 474 kts 49°
2026-04-24 11:17 41.52251 -72.81837 24324 ft 476 kts 49°
2026-04-24 11:17 41.54482 -72.76751 24782 ft 478 kts 49°
2026-04-24 11:18 41.56170 -72.72899 25112 ft 480 kts 49°
2026-04-24 11:18 41.57291 -72.70337 25319 ft 482 kts 49°
2026-04-24 11:18 41.58992 -72.66447 25646 ft 483 kts 49°
2026-04-24 11:18 41.60692 -72.62553 25991 ft 485 kts 49°
2026-04-24 11:19 41.62401 -72.58628 26339 ft 488 kts 49°
2026-04-24 11:19 41.64122 -72.54675 26617 ft 491 kts 49°
2026-04-24 11:19 41.65855 -72.50777 26896 ft 493 kts 48°
2026-04-24 11:19 41.67633 -72.46838 27238 ft 494 kts 47°
2026-04-24 11:20 41.70002 -72.41600 27688 ft 496 kts 47°
2026-04-24 11:20 41.71212 -72.38922 27893 ft 497 kts 47°
2026-04-24 11:20 41.72987 -72.34987 28214 ft 499 kts 47°
2026-04-24 11:20 41.74783 -72.30995 28565 ft 499 kts 48°
2026-04-24 11:21 41.76577 -72.26991 29015 ft 498 kts 48°
2026-04-24 11:21 41.78363 -72.22994 29531 ft 496 kts 47°
2026-04-24 11:21 41.80123 -72.19056 29871 ft 497 kts 47°
2026-04-24 11:21 41.81918 -72.15048 30121 ft 500 kts 47°
2026-04-24 11:22 41.83714 -72.11030 30423 ft 500 kts 47°
2026-04-24 11:22 41.85504 -72.07013 30738 ft 500 kts 48°
2026-04-24 11:22 41.87273 -72.03039 30998 ft 501 kts 48°
2026-04-24 11:22 41.89060 -71.99017 31024 ft 501 kts 48°
2026-04-24 11:23 41.92642 -71.90935 31057 ft 502 kts 48°
2026-04-24 11:23 41.96219 -71.82876 30946 ft 503 kts 47°
2026-04-24 11:24 41.99957 -71.75001 30942 ft 498 kts 46°
2026-04-24 11:24 42.03719 -71.67143 30930 ft 498 kts 47°
2026-04-24 11:25 42.07446 -71.59304 30928 ft 498 kts 47°
2026-04-24 11:25 42.11193 -71.51384 30948 ft 500 kts 47°
2026-04-24 11:26 42.14935 -71.43457 30937 ft 499 kts 47°
2026-04-24 11:26 42.18637 -71.35573 30936 ft 498 kts 47°
2026-04-24 11:27 42.22355 -71.27644 30936 ft 498 kts 47°
2026-04-24 11:27 42.26046 -71.19752 30941 ft 498 kts 48°
2026-04-24 11:28 42.29733 -71.11848 30954 ft 493 kts 48°
2026-04-24 11:28 42.33082 -71.03704 30944 ft 505 kts 58°
2026-04-24 11:29 42.35097 -70.94396 30940 ft 524 kts 72°
2026-04-24 11:29 42.35481 -70.84446 30959 ft 540 kts 84°
2026-04-24 11:30 42.35198 -70.74200 30930 ft 544 kts 85°
2026-04-24 11:30 42.34889 -70.64001 30922 ft 544 kts 85°
2026-04-24 11:31 42.34602 -70.53797 30978 ft 544 kts 85°
2026-04-24 11:31 42.34319 -70.43501 30940 ft 545 kts 85°
2026-04-24 11:32 42.34035 -70.33297 30918 ft 545 kts 85°
2026-04-24 11:32 42.33741 -70.23026 30916 ft 545 kts 85°
2026-04-24 11:33 42.33441 -70.12762 30935 ft 549 kts 85°
2026-04-24 11:33 42.33127 -70.02459 30925 ft 550 kts 85°
2026-04-24 11:34 42.32799 -69.92099 30924 ft 550 kts 85°
2026-04-24 11:34 42.32466 -69.81740 30934 ft 552 kts 86°
2026-04-24 11:35 42.32123 -69.71358 30923 ft 554 kts 86°
2026-04-24 11:35 42.31764 -69.60912 30915 ft 554 kts 86°
2026-04-24 11:36 42.31400 -69.50559 30942 ft 555 kts 86°
2026-04-24 11:36 42.31027 -69.40076 30917 ft 557 kts 86°
2026-04-24 11:37 42.30638 -69.29589 30913 ft 558 kts 86°
2026-04-24 11:37 42.30242 -69.19161 30976 ft 556 kts 86°
2026-04-24 11:38 42.29839 -69.08685 30920 ft 556 kts 87°
2026-04-24 11:38 42.29426 -68.98267 30905 ft 557 kts 87°
2026-04-24 11:39 42.29000 -68.87778 30904 ft 557 kts 87°
2026-04-24 11:39 42.28571 -68.77324 30909 ft 559 kts 88°
2026-04-24 11:40 42.28124 -68.66803 30897 ft 559 kts 88°
2026-04-24 11:40 42.27669 -68.56330 30896 ft 559 kts 88°
2026-04-24 11:41 42.27206 -68.45779 30904 ft 561 kts 88°
2026-04-24 11:41 42.26733 -68.35289 30895 ft 562 kts 88°
2026-04-24 11:42 42.26243 -68.24698 30891 ft 562 kts 88°
2026-04-24 11:42 42.25753 -68.14199 30905 ft 561 kts 89°
2026-04-24 11:43 42.25246 -68.03636 30888 ft 561 kts 89°
2026-04-24 11:43 42.24733 -67.93155 30912 ft 561 kts 89°
2026-04-24 11:44 42.24211 -67.82659 30887 ft 557 kts 89°
2026-04-24 11:44 42.23684 -67.72258 30881 ft 557 kts 89°
2026-04-24 11:45 42.23145 -67.61779 30879 ft 557 kts 89°
2026-04-24 11:45 42.22603 -67.51404 30896 ft 557 kts 89°
2026-04-24 11:46 42.22047 -67.40945 30879 ft 557 kts 90°
2026-04-24 11:46 42.21481 -67.30528 30873 ft 557 kts 90°
2026-04-24 11:47 42.20906 -67.20065 30891 ft 557 kts 90°
2026-04-24 11:47 42.20365 -67.09667 30860 ft 556 kts 87°
2026-04-24 11:48 42.20844 -66.99322 30861 ft 547 kts 74°
2026-04-24 11:48 42.22786 -66.89510 30882 ft 534 kts 62°
2026-04-24 11:49 42.25527 -66.80327 30875 ft 527 kts 61°
2026-04-24 11:49 42.28322 -66.71147 30853 ft 526 kts 61°
2026-04-24 11:50 42.31082 -66.61946 30853 ft 527 kts 61°
2026-04-24 11:50 42.33808 -66.52765 30854 ft 528 kts 62°
2026-04-24 11:51 42.36525 -66.43559 30849 ft 529 kts 62°
2026-04-24 11:51 42.39250 -66.34281 30846 ft 529 kts 62°
2026-04-24 11:52 42.41960 -66.25023 30844 ft 529 kts 62°
2026-04-24 11:52 42.44680 -66.15700 30875 ft 531 kts 62°
2026-04-24 11:53 42.47364 -66.06478 30845 ft 525 kts 63°
2026-04-24 11:53 42.50039 -65.97225 30834 ft 525 kts 63°
2026-04-24 11:54 42.52696 -65.88010 30833 ft 525 kts 63°
2026-04-24 11:54 42.55338 -65.78817 30841 ft 525 kts 63°
2026-04-24 11:55 42.57988 -65.69585 30836 ft 522 kts 64°
2026-04-24 11:55 42.60605 -65.60401 30824 ft 522 kts 64°
2026-04-24 11:56 42.63229 -65.51165 30822 ft 522 kts 64°
2026-04-24 11:56 42.65831 -65.41979 30822 ft 522 kts 64°
2026-04-24 11:57 42.68437 -65.32756 30833 ft 519 kts 64°
2026-04-24 11:57 42.71006 -65.23617 30835 ft 518 kts 64°
2026-04-24 11:58 42.73585 -65.14413 30827 ft 518 kts 65°
2026-04-24 11:58 42.76151 -65.05215 30825 ft 518 kts 65°
2026-04-24 11:59 42.78695 -64.96073 30824 ft 516 kts 65°
2026-04-24 11:59 42.81235 -64.86902 30823 ft 516 kts 65°
2026-04-24 12:00 42.83753 -64.77775 30830 ft 516 kts 65°
2026-04-24 12:00 42.86287 -64.68568 30834 ft 516 kts 65°
2026-04-24 12:01 42.88792 -64.59435 30835 ft 514 kts 66°
2026-04-24 12:01 42.91277 -64.50327 30827 ft 513 kts 66°
2026-04-24 12:02 42.93766 -64.41170 30825 ft 513 kts 66°
2026-04-24 12:02 42.96235 -64.32054 30825 ft 513 kts 66°
2026-04-24 12:03 42.98712 -64.22886 30839 ft 512 kts 66°
2026-04-24 12:03 43.01160 -64.13791 30824 ft 511 kts 66°
2026-04-24 12:04 43.03213 -64.06127 30823 ft 511 kts 67°
2026-04-24 12:04 43.05643 -63.97024 30829 ft 511 kts 67°
2026-04-24 12:05 43.08080 -63.87863 30823 ft 511 kts 67°
2026-04-24 12:05 43.10493 -63.78768 30827 ft 509 kts 67°
2026-04-24 12:06 43.12909 -63.69616 30827 ft 509 kts 67°
2026-04-24 12:06 43.15305 -63.60504 30824 ft 509 kts 67°
2026-04-24 12:07 43.17708 -63.51335 30822 ft 509 kts 67°
2026-04-24 12:07 43.20100 -63.42180 30836 ft 508 kts 68°
2026-04-24 12:08 43.22463 -63.33091 30823 ft 507 kts 68°
2026-04-24 12:08 43.24833 -63.23941 30817 ft 507 kts 68°
2026-04-24 12:09 43.27185 -63.14826 30816 ft 507 kts 68°
2026-04-24 12:09 43.29545 -63.05652 30830 ft 508 kts 68°
2026-04-24 12:10 43.31880 -62.96535 30821 ft 507 kts 68°
2026-04-24 12:11 43.35370 -62.82836 30819 ft 507 kts 68°
2026-04-24 12:11 43.37700 -62.73646 30813 ft 507 kts 68°
2026-04-24 12:12 43.40006 -62.64519 30816 ft 507 kts 68°
2026-04-24 12:12 43.42319 -62.55329 30817 ft 507 kts 69°
2026-04-24 12:13 43.44635 -62.46089 30814 ft 508 kts 69°
2026-04-24 12:13 43.46924 -62.36921 30813 ft 508 kts 69°
2026-04-24 12:14 43.49225 -62.27671 30826 ft 507 kts 69°
2026-04-24 12:14 43.51494 -62.18513 30816 ft 505 kts 69°
2026-04-24 12:15 43.53755 -62.09339 30809 ft 505 kts 69°
2026-04-24 12:15 43.56020 -62.00122 30810 ft 506 kts 69°
2026-04-24 12:16 43.58265 -61.90947 30810 ft 507 kts 69°
2026-04-24 12:16 43.60522 -61.81698 30814 ft 504 kts 70°
2026-04-24 12:17 43.62742 -61.72545 30809 ft 504 kts 70°
2026-04-24 12:17 43.64965 -61.63347 30808 ft 504 kts 70°
2026-04-24 12:18 43.67171 -61.54181 30807 ft 504 kts 70°
2026-04-24 12:18 43.69379 -61.44983 30815 ft 503 kts 70°
2026-04-24 12:19 43.71566 -61.35832 30808 ft 502 kts 70°
2026-04-24 12:19 43.73755 -61.26620 30807 ft 502 kts 70°
2026-04-24 12:20 43.75933 -61.17421 30805 ft 502 kts 70°
2026-04-24 12:20 43.78103 -61.08223 30803 ft 502 kts 71°
2026-04-24 12:21 43.80251 -60.99091 30804 ft 499 kts 71°
2026-04-24 12:21 43.82399 -60.89908 30795 ft 499 kts 71°
2026-04-24 12:22 43.84537 -60.80731 30794 ft 500 kts 71°
2026-04-24 12:22 43.86658 -60.71589 30794 ft 500 kts 71°
2026-04-24 12:23 43.88788 -60.62379 30796 ft 499 kts 71°
2026-04-24 12:23 43.90885 -60.53263 30793 ft 498 kts 72°
2026-04-24 12:24 43.92993 -60.44061 30791 ft 498 kts 72°
2026-04-24 12:24 43.95078 -60.34920 30790 ft 498 kts 72°
2026-04-24 12:25 43.97173 -60.25704 30796 ft 498 kts 72°
2026-04-24 12:25 43.99246 -60.16561 30796 ft 497 kts 72°
2026-04-24 12:26 44.01313 -60.07374 30795 ft 496 kts 72°
2026-04-24 12:26 44.03359 -59.98245 30791 ft 496 kts 73°
2026-04-24 12:27 44.05413 -59.89048 30789 ft 496 kts 73°
2026-04-24 12:27 44.07461 -59.79857 30793 ft 495 kts 73°
2026-04-24 12:28 44.09481 -59.70746 30792 ft 494 kts 73°
2026-04-24 12:28 44.11500 -59.61577 30791 ft 493 kts 73°
2026-04-24 12:29 44.13503 -59.52438 30785 ft 493 kts 74°
2026-04-24 12:29 44.15496 -59.43316 30785 ft 493 kts 73°
2026-04-24 12:30 44.17497 -59.34139 30789 ft 492 kts 74°
2026-04-24 12:30 44.19468 -59.25039 30786 ft 491 kts 73°
2026-04-24 12:31 44.21443 -59.15892 30780 ft 491 kts 75°
2026-04-24 12:31 44.23398 -59.06794 30783 ft 490 kts 74°
2026-04-24 12:32 44.25351 -58.97664 30777 ft 489 kts 75°
2026-04-24 12:32 44.27278 -58.88633 30778 ft 486 kts 74°
2026-04-24 12:33 44.29199 -58.79558 30773 ft 486 kts 75°
2026-04-24 12:33 44.31120 -58.70461 30772 ft 486 kts 74°
2026-04-24 12:34 44.33018 -58.61431 30771 ft 486 kts 75°
2026-04-24 12:34 44.34925 -58.52318 30765 ft 486 kts 75°
2026-04-24 12:35 44.36813 -58.43256 30765 ft 486 kts 75°
2026-04-24 12:35 44.38694 -58.34185 30763 ft 486 kts 75°
2026-04-24 12:36 44.40579 -58.25055 30764 ft 486 kts 76°
2026-04-24 12:36 44.42448 -58.15979 30767 ft 486 kts 76°
2026-04-24 12:37 44.44305 -58.06908 30758 ft 485 kts 76°
2026-04-24 12:37 44.46168 -57.97772 30759 ft 485 kts 76°
2026-04-24 12:38 44.48018 -57.88643 30754 ft 485 kts 75°
2026-04-24 12:38 44.49848 -57.79572 30754 ft 485 kts 76°
2026-04-24 12:39 44.53502 -57.61359 30748 ft 484 kts 76°
2026-04-24 12:40 44.55309 -57.52288 30744 ft 483 kts 76°
2026-04-24 12:40 44.57115 -57.43182 30745 ft 483 kts 76°
2026-04-24 12:41 44.58912 -57.34070 30737 ft 482 kts 77°
2026-04-24 12:41 44.60685 -57.25035 30731 ft 481 kts 76°
2026-04-24 12:42 44.62457 -57.15967 30729 ft 480 kts 77°
2026-04-24 12:42 44.64220 -57.06901 30730 ft 480 kts 77°
2026-04-24 12:43 44.65974 -56.97851 30730 ft 480 kts 76°
2026-04-24 12:43 44.67710 -56.88849 30721 ft 479 kts 77°
2026-04-24 12:44 44.69450 -56.79788 30713 ft 478 kts 77°
2026-04-24 12:44 44.71175 -56.70761 30716 ft 475 kts 77°
2026-04-24 12:45 44.72877 -56.61798 30713 ft 475 kts 77°
2026-04-24 12:45 44.74582 -56.52773 30709 ft 476 kts 77°
2026-04-24 12:46 44.76285 -56.43733 30701 ft 476 kts 77°
2026-04-24 12:46 44.77968 -56.34743 30701 ft 476 kts 78°
2026-04-24 12:47 44.79649 -56.25734 30698 ft 475 kts 77°
2026-04-24 12:47 44.81317 -56.16763 30689 ft 475 kts 77°
2026-04-24 12:48 44.82985 -56.07715 30692 ft 475 kts 79°
2026-04-24 12:48 44.84647 -55.98679 30694 ft 474 kts 78°
2026-04-24 12:49 44.86295 -55.89671 30681 ft 475 kts 78°
2026-04-24 12:49 44.87667 -55.82120 30684 ft 476 kts 78°
2026-04-24 12:50 44.89305 -55.73092 30683 ft 476 kts 77°
2026-04-24 12:50 44.90943 -55.64001 30672 ft 476 kts 78°
2026-04-24 12:51 44.92567 -55.54960 30673 ft 478 kts 79°
2026-04-24 12:51 44.94202 -55.45822 30662 ft 479 kts 78°
2026-04-24 12:52 44.95828 -55.36647 30670 ft 479 kts 79°
2026-04-24 12:52 44.97437 -55.27527 30661 ft 479 kts 79°
2026-04-24 12:53 44.99055 -55.18350 30667 ft 479 kts 79°
2026-04-24 12:53 45.00650 -55.09209 30650 ft 479 kts 79°
2026-04-24 12:54 45.02248 -55.00043 30659 ft 479 kts 79°
2026-04-24 12:54 45.03829 -54.90938 30653 ft 477 kts 80°
2026-04-24 12:55 45.05406 -54.81779 30653 ft 477 kts 80°
2026-04-24 12:55 45.06962 -54.72699 30643 ft 477 kts 80°
2026-04-24 12:56 45.08521 -54.63556 30630 ft 476 kts 80°
2026-04-24 12:56 45.10075 -54.54407 30642 ft 475 kts 80°
2026-04-24 12:57 45.11605 -54.45334 30633 ft 475 kts 80°
2026-04-24 12:57 45.13137 -54.36202 30633 ft 475 kts 80°
2026-04-24 12:58 45.14655 -54.27114 30635 ft 475 kts 81°
2026-04-24 12:58 45.16172 -54.17976 30627 ft 475 kts 81°
2026-04-24 12:59 45.17671 -54.08903 30626 ft 474 kts 81°
2026-04-24 12:59 45.19172 -53.99766 30626 ft 474 kts 81°
2026-04-24 13:00 45.20660 -53.90665 30618 ft 474 kts 81°
2026-04-24 13:00 45.22149 -53.81508 30620 ft 474 kts 81°
2026-04-24 13:01 45.23631 -53.72361 30580 ft 474 kts 82°
2026-04-24 13:01 45.25097 -53.63267 30604 ft 474 kts 82°
2026-04-24 13:02 45.26561 -53.54089 30611 ft 474 kts 82°
2026-04-24 13:02 45.28009 -53.44970 30601 ft 474 kts 82°
2026-04-24 13:03 45.29458 -53.35806 30610 ft 474 kts 82°
2026-04-24 13:03 45.30894 -53.26703 30600 ft 472 kts 82°
2026-04-24 13:04 45.32326 -53.17564 30600 ft 471 kts 83°
2026-04-24 13:04 45.33731 -53.08509 30594 ft 470 kts 83°
2026-04-24 13:05 45.35139 -52.99393 30602 ft 470 kts 83°
2026-04-24 13:05 45.36531 -52.90335 30599 ft 470 kts 83°
2026-04-24 13:06 45.37926 -52.81228 30581 ft 469 kts 83°
2026-04-24 13:06 45.39308 -52.72149 30589 ft 467 kts 83°
2026-04-24 13:07 45.40667 -52.63146 30595 ft 467 kts 83°
2026-04-24 13:07 45.42031 -52.54066 30595 ft 467 kts 84°
2026-04-24 13:08 45.43378 -52.45060 30562 ft 467 kts 84°
2026-04-24 13:08 45.44729 -52.35983 30565 ft 466 kts 84°
2026-04-24 13:09 45.46726 -52.22446 30591 ft 465 kts 84°
2026-04-24 13:09 45.48046 -52.13433 30593 ft 465 kts 84°
2026-04-24 13:10 45.49384 -52.04418 30598 ft 466 kts 83°
2026-04-24 13:10 45.51194 -51.95465 30586 ft 471 kts 77°
2026-04-24 13:11 45.53439 -51.86682 30576 ft 473 kts 76°
2026-04-24 13:11 45.55733 -51.77854 30591 ft 473 kts 76°
2026-04-24 13:12 45.58018 -51.69016 30594 ft 473 kts 76°
2026-04-24 13:12 45.60286 -51.60206 30592 ft 473 kts 76°
2026-04-24 13:13 45.62556 -51.51347 30582 ft 474 kts 76°
2026-04-24 13:13 45.64809 -51.42517 30599 ft 474 kts 76°
2026-04-24 13:14 45.67067 -51.33638 30604 ft 474 kts 76°
2026-04-24 13:14 45.69320 -51.24741 30608 ft 474 kts 76°
2026-04-24 13:15 45.71565 -51.15841 30590 ft 475 kts 76°
2026-04-24 13:15 45.73798 -51.06952 30613 ft 476 kts 76°
2026-04-24 13:16 45.76043 -50.97981 30625 ft 476 kts 76°
2026-04-24 13:16 45.78266 -50.89059 30607 ft 479 kts 76°
2026-04-24 13:17 45.80515 -50.80005 30635 ft 480 kts 76°
2026-04-24 13:17 45.82759 -50.70932 30639 ft 484 kts 76°
2026-04-24 13:18 45.85004 -50.61825 30641 ft 484 kts 76°
2026-04-24 13:18 45.87249 -50.52679 30651 ft 484 kts 77°
2026-04-24 13:19 45.89478 -50.43560 30648 ft 484 kts 77°
2026-04-24 13:19 45.91699 -50.34439 30649 ft 488 kts 77°
2026-04-24 13:20 45.93946 -50.25165 30657 ft 489 kts 77°
2026-04-24 13:20 45.96183 -50.15897 30670 ft 489 kts 77°
2026-04-24 13:21 45.98399 -50.06680 30648 ft 491 kts 77°
2026-04-24 13:21 46.00654 -49.97309 30672 ft 496 kts 77°
2026-04-24 13:22 46.03012 -49.87930 30686 ft 497 kts 76°
2026-04-24 13:22 46.05358 -49.78621 30687 ft 496 kts 76°
2026-04-24 13:23 46.07696 -49.69275 30685 ft 496 kts 76°
2026-04-24 13:23 46.10037 -49.59867 30677 ft 498 kts 77°
2026-04-24 13:24 46.12379 -49.50403 30690 ft 500 kts 77°
2026-04-24 13:24 46.14698 -49.40988 30703 ft 500 kts 77°
2026-04-24 13:25 46.17030 -49.31486 30712 ft 500 kts 77°
2026-04-24 13:25 46.19337 -49.22048 30697 ft 501 kts 77°
2026-04-24 13:26 46.21676 -49.12431 30711 ft 508 kts 77°
2026-04-24 13:26 46.24005 -49.02815 30717 ft 509 kts 77°
2026-04-24 13:27 46.26341 -48.93131 30726 ft 508 kts 77°
2026-04-24 13:27 46.28653 -48.83509 30716 ft 509 kts 78°
2026-04-24 13:28 46.30989 -48.73731 30731 ft 514 kts 78°
2026-04-24 13:28 46.33324 -48.63923 30741 ft 514 kts 78°
2026-04-24 13:29 46.35638 -48.54167 30739 ft 514 kts 78°
2026-04-24 13:29 46.37954 -48.44353 30737 ft 514 kts 78°
2026-04-24 13:30 46.40263 -48.34501 30756 ft 518 kts 77°
2026-04-24 13:30 46.42588 -48.24567 30735 ft 520 kts 78°
2026-04-24 13:31 46.44903 -48.14625 30757 ft 522 kts 78°
2026-04-24 13:31 46.47229 -48.04591 30743 ft 523 kts 77°
2026-04-24 13:32 46.49547 -47.94513 30762 ft 525 kts 77°
2026-04-24 13:32 46.51855 -47.84478 30771 ft 525 kts 77°
2026-04-24 13:33 46.54172 -47.74350 30772 ft 525 kts 77°
2026-04-24 13:33 46.56456 -47.64304 30761 ft 525 kts 77°
2026-04-24 13:34 46.58735 -47.54224 30783 ft 525 kts 77°
2026-04-24 13:34 46.61016 -47.44112 30782 ft 525 kts 77°
2026-04-24 13:35 46.62907 -47.35688 30780 ft 525 kts 77°
2026-04-24 13:35 46.65179 -47.25493 30767 ft 528 kts 77°
2026-04-24 13:36 46.67434 -47.15328 30782 ft 530 kts 76°
2026-04-24 13:36 46.69710 -47.05058 30786 ft 530 kts 76°
2026-04-24 13:37 46.71969 -46.94810 30785 ft 530 kts 77°
2026-04-24 13:37 46.74208 -46.84588 30768 ft 530 kts 76°
2026-04-24 13:38 46.76447 -46.74302 30788 ft 530 kts 76°
2026-04-24 13:38 46.78675 -46.64069 30787 ft 530 kts 76°
2026-04-24 13:39 46.80901 -46.53771 30791 ft 530 kts 76°
2026-04-24 13:39 46.83114 -46.43465 30772 ft 530 kts 76°
2026-04-24 13:40 46.85292 -46.33225 30781 ft 530 kts 75°
2026-04-24 13:40 46.87495 -46.22894 30789 ft 530 kts 75°
2026-04-24 13:41 46.89675 -46.12613 30794 ft 530 kts 75°
2026-04-24 13:41 46.91854 -46.02269 30794 ft 530 kts 75°
2026-04-24 13:42 46.94010 -45.91973 30793 ft 530 kts 76°
2026-04-24 13:42 46.96167 -45.81619 30794 ft 530 kts 76°
2026-04-24 13:43 46.98316 -45.71249 30796 ft 530 kts 76°
2026-04-24 13:43 47.00440 -45.60921 30791 ft 530 kts 75°
2026-04-24 13:44 47.02563 -45.50546 30792 ft 530 kts 75°
2026-04-24 13:44 47.04667 -45.40228 30787 ft 530 kts 75°
2026-04-24 13:45 47.06786 -45.29794 30799 ft 531 kts 75°
2026-04-24 13:45 47.08875 -45.19446 30798 ft 530 kts 75°
2026-04-24 13:46 47.10961 -45.09048 30802 ft 528 kts 75°
2026-04-24 13:46 47.13028 -44.98720 30802 ft 528 kts 75°
2026-04-24 13:47 47.15101 -44.88297 30802 ft 528 kts 75°
2026-04-24 13:47 47.17156 -44.77894 30803 ft 527 kts 74°
2026-04-24 13:48 47.19175 -44.67597 30804 ft 524 kts 74°
2026-04-24 13:48 47.21198 -44.57280 30805 ft 523 kts 74°
2026-04-24 13:49 47.23204 -44.46976 30795 ft 524 kts 74°
2026-04-24 13:49 47.25194 -44.36682 30809 ft 524 kts 74°
2026-04-24 13:50 47.27176 -44.26369 30803 ft 520 kts 74°
2026-04-24 13:50 47.29146 -44.16095 30803 ft 520 kts 74°
2026-04-24 13:51 47.31097 -44.05858 30800 ft 520 kts 74°
2026-04-24 13:51 47.33037 -43.95614 30805 ft 519 kts 74°
2026-04-24 13:52 47.34959 -43.85396 30804 ft 517 kts 74°
2026-04-24 13:52 47.36883 -43.75126 30797 ft 517 kts 74°
2026-04-24 13:53 47.38798 -43.64853 30799 ft 517 kts 74°
2026-04-24 13:53 47.40694 -43.54615 30800 ft 517 kts 74°
2026-04-24 13:54 47.42574 -43.44407 30788 ft 517 kts 74°
2026-04-24 13:54 47.44463 -43.34090 30795 ft 517 kts 74°
2026-04-24 13:55 47.46329 -43.23854 30796 ft 517 kts 74°
2026-04-24 13:55 47.48198 -43.13538 30797 ft 517 kts 74°
2026-04-24 13:56 47.50044 -43.03303 30800 ft 514 kts 75°
2026-04-24 13:56 47.51879 -42.93054 30796 ft 514 kts 75°
2026-04-24 13:57 47.53694 -42.82854 30796 ft 513 kts 75°
2026-04-24 13:57 47.55509 -42.72595 30788 ft 513 kts 75°
2026-04-24 13:58 47.57314 -42.62345 30792 ft 512 kts 75°
2026-04-24 13:58 47.59098 -42.52149 30787 ft 511 kts 75°
2026-04-24 13:59 47.60881 -42.41901 30789 ft 511 kts 75°
2026-04-24 13:59 47.62642 -42.31725 30790 ft 511 kts 75°
2026-04-24 14:00 47.64401 -42.21516 30794 ft 511 kts 76°
2026-04-24 14:00 47.66154 -42.11268 30787 ft 510 kts 76°
2026-04-24 14:01 47.67885 -42.01075 30785 ft 510 kts 76°
2026-04-24 14:01 47.69622 -41.90795 30778 ft 510 kts 76°
2026-04-24 14:02 47.71333 -41.80610 30779 ft 510 kts 76°
2026-04-24 14:02 47.73046 -41.70359 30772 ft 510 kts 76°
2026-04-24 14:03 47.74753 -41.60075 30775 ft 510 kts 76°
2026-04-24 14:03 47.76439 -41.49860 30778 ft 510 kts 76°
2026-04-24 14:04 47.78128 -41.39550 30772 ft 511 kts 76°
2026-04-24 14:04 47.79796 -41.29295 30772 ft 511 kts 76°
2026-04-24 14:05 47.81470 -41.18989 30767 ft 511 kts 76°
2026-04-24 14:05 47.83125 -41.08725 30770 ft 511 kts 76°
2026-04-24 14:06 47.84780 -40.98383 30770 ft 511 kts 76°
2026-04-24 14:06 47.86415 -40.88098 30772 ft 507 kts 76°
2026-04-24 14:07 47.88024 -40.77919 30765 ft 506 kts 76°
2026-04-24 14:07 47.89635 -40.67670 30762 ft 506 kts 76°
2026-04-24 14:08 47.91228 -40.57462 30761 ft 506 kts 76°
2026-04-24 14:08 47.92826 -40.47199 30759 ft 502 kts 77°
2026-04-24 14:09 47.94376 -40.37076 30757 ft 502 kts 77°
2026-04-24 14:09 47.95936 -40.26864 30758 ft 502 kts 77°
2026-04-24 14:10 47.97486 -40.16680 30756 ft 502 kts 77°
2026-04-24 14:10 47.99023 -40.06517 30757 ft 502 kts 77°
2026-04-24 14:11 48.00905 -39.96544 30756 ft 499 kts 71°
2026-04-24 14:12 48.04523 -39.81947 30749 ft 499 kts 69°
2026-04-24 14:12 48.06977 -39.72195 30749 ft 499 kts 70°
2026-04-24 14:13 48.09415 -39.62447 30748 ft 498 kts 70°
2026-04-24 14:13 48.11815 -39.52768 30749 ft 497 kts 70°
2026-04-24 14:14 48.14220 -39.43025 30745 ft 496 kts 70°
2026-04-24 14:14 48.17797 -39.28460 30743 ft 497 kts 70°
2026-04-24 14:15 48.20180 -39.18698 30738 ft 496 kts 71°
2026-04-24 14:15 48.22536 -39.09002 30734 ft 497 kts 71°
2026-04-24 14:16 48.24908 -38.99200 30734 ft 498 kts 71°
2026-04-24 14:17 48.28452 -38.84480 30731 ft 499 kts 71°
2026-04-24 14:17 48.31971 -38.69770 30729 ft 499 kts 71°
2026-04-24 14:18 48.34319 -38.59904 30726 ft 499 kts 71°
2026-04-24 14:18 48.36642 -38.50094 30723 ft 499 kts 71°
2026-04-24 14:19 48.38973 -38.40202 30719 ft 501 kts 71°
2026-04-24 14:19 48.41286 -38.30344 30723 ft 501 kts 71°
2026-04-24 14:20 48.43214 -38.22093 30720 ft 501 kts 71°
2026-04-24 14:20 48.45900 -38.10547 30722 ft 500 kts 71°
2026-04-24 14:21 48.47813 -38.02272 30714 ft 501 kts 71°
2026-04-24 14:21 48.50111 -37.92310 30709 ft 501 kts 71°
2026-04-24 14:22 48.52388 -37.82392 30709 ft 501 kts 71°
2026-04-24 14:23 48.55791 -37.67478 30704 ft 501 kts 71°
2026-04-24 14:23 48.58061 -37.57467 30702 ft 502 kts 71°
2026-04-24 14:24 48.60307 -37.47519 30706 ft 502 kts 71°
2026-04-24 14:24 48.62558 -37.37499 30706 ft 501 kts 71°
2026-04-24 14:25 48.64786 -37.27537 30700 ft 502 kts 71°
2026-04-24 14:25 48.67022 -37.17484 30697 ft 502 kts 71°
2026-04-24 14:26 48.69243 -37.07455 30696 ft 502 kts 71°
2026-04-24 14:26 48.71452 -36.97436 30695 ft 502 kts 72°
2026-04-24 14:27 48.73662 -36.87364 30702 ft 502 kts 71°
2026-04-24 14:27 48.75847 -36.77344 30696 ft 502 kts 71°
2026-04-24 14:28 48.78042 -36.67242 30699 ft 502 kts 72°
2026-04-24 14:28 48.80219 -36.57179 30687 ft 502 kts 72°
2026-04-24 14:29 48.82380 -36.47131 30690 ft 502 kts 72°
2026-04-24 14:29 48.84556 -36.36956 30687 ft 505 kts 71°
2026-04-24 14:30 48.86713 -36.26832 30684 ft 505 kts 72°
2026-04-24 14:30 48.88866 -36.16676 30684 ft 505 kts 72°
2026-04-24 14:31 48.91018 -36.06473 30681 ft 505 kts 72°
2026-04-24 14:31 48.93157 -35.96259 30679 ft 509 kts 71°
2026-04-24 14:32 48.95311 -35.85949 30679 ft 510 kts 71°
2026-04-24 14:32 48.97457 -35.75624 30675 ft 510 kts 72°
2026-04-24 14:33 48.99578 -35.65360 30672 ft 510 kts 72°
2026-04-24 14:33 49.01715 -35.54963 30659 ft 513 kts 72°
2026-04-24 14:34 49.03833 -35.44608 30667 ft 513 kts 72°
2026-04-24 14:34 49.05941 -35.34242 30667 ft 513 kts 72°
2026-04-24 14:35 49.08052 -35.23809 30664 ft 513 kts 72°
2026-04-24 14:35 49.10158 -35.13326 30662 ft 516 kts 72°
2026-04-24 14:36 49.12251 -35.02879 30661 ft 517 kts 72°
2026-04-24 14:36 49.14356 -34.92310 30659 ft 517 kts 72°
2026-04-24 14:37 49.16430 -34.81840 30659 ft 517 kts 72°
2026-04-24 14:37 49.18510 -34.71274 30653 ft 519 kts 72°
2026-04-24 14:38 49.20590 -34.60660 30647 ft 519 kts 72°
2026-04-24 14:38 49.22649 -34.50089 30651 ft 519 kts 72°
2026-04-24 14:39 49.24710 -34.39452 30649 ft 519 kts 72°
2026-04-24 14:39 49.26749 -34.28862 30654 ft 520 kts 72°
2026-04-24 14:40 49.28779 -34.18266 30650 ft 520 kts 72°
2026-04-24 14:40 49.30818 -34.07561 30648 ft 520 kts 72°
2026-04-24 14:41 49.32828 -33.96953 30645 ft 520 kts 72°
2026-04-24 14:41 49.34846 -33.86234 30648 ft 520 kts 72°
2026-04-24 14:42 49.36836 -33.75608 30623 ft 521 kts 73°
2026-04-24 14:42 49.38841 -33.64845 30638 ft 523 kts 73°
2026-04-24 14:43 49.40829 -33.54104 30640 ft 523 kts 73°
2026-04-24 14:43 49.42802 -33.43380 30644 ft 523 kts 73°
2026-04-24 14:44 49.44778 -33.32583 30640 ft 523 kts 73°
2026-04-24 14:44 49.46735 -33.21820 30639 ft 523 kts 73°
2026-04-24 14:45 49.48680 -33.11062 30649 ft 523 kts 73°
2026-04-24 14:45 49.50625 -33.00238 30639 ft 523 kts 73°
2026-04-24 14:46 49.52562 -32.89398 30639 ft 523 kts 73°
2026-04-24 14:46 49.54480 -32.78602 30638 ft 523 kts 73°
2026-04-24 14:47 49.56394 -32.67758 30634 ft 523 kts 73°
2026-04-24 14:47 49.58286 -32.56969 30641 ft 525 kts 73°
2026-04-24 14:48 49.60184 -32.46086 30638 ft 525 kts 73°
2026-04-24 14:48 49.62079 -32.35157 30635 ft 525 kts 74°
2026-04-24 14:49 49.63948 -32.24302 30632 ft 525 kts 74°
2026-04-24 14:49 49.65823 -32.13341 30635 ft 527 kts 74°
2026-04-24 14:50 49.67684 -32.02407 30630 ft 528 kts 74°
2026-04-24 14:50 49.69543 -31.91406 30628 ft 528 kts 74°
2026-04-24 14:51 49.71392 -31.80406 30631 ft 527 kts 74°
2026-04-24 14:51 49.73222 -31.69428 30634 ft 530 kts 74°
2026-04-24 14:52 49.75059 -31.58348 30629 ft 530 kts 74°
2026-04-24 14:52 49.76875 -31.47326 30627 ft 530 kts 75°
2026-04-24 14:53 49.78693 -31.36218 30629 ft 530 kts 75°
2026-04-24 14:53 49.80493 -31.25139 30640 ft 533 kts 75°
2026-04-24 14:54 49.82299 -31.13956 30630 ft 533 kts 75°
2026-04-24 14:54 49.84083 -31.02837 30639 ft 533 kts 75°
2026-04-24 14:55 49.85568 -30.93525 30635 ft 533 kts 75°
2026-04-24 14:55 49.87644 -30.80402 30642 ft 536 kts 75°
2026-04-24 14:56 49.89404 -30.69208 30638 ft 536 kts 75°
2026-04-24 14:56 49.91164 -30.57936 30638 ft 536 kts 75°
2026-04-24 14:57 49.92902 -30.46724 30651 ft 536 kts 75°
2026-04-24 14:57 49.94639 -30.35435 30638 ft 535 kts 75°
2026-04-24 14:58 49.96364 -30.24148 30640 ft 535 kts 75°
2026-04-24 14:58 49.98065 -30.12936 30640 ft 535 kts 75°
2026-04-24 14:59 49.99769 -30.01618 30646 ft 535 kts 76°
2026-04-24 14:59 50.01423 -29.90367 30634 ft 535 kts 76°
2026-04-24 15:00 50.03055 -29.79029 30641 ft 536 kts 76°
2026-04-24 15:00 50.04671 -29.67726 30646 ft 536 kts 76°
2026-04-24 15:01 50.06277 -29.56419 30656 ft 536 kts 76°
2026-04-24 15:01 50.07876 -29.45091 30649 ft 533 kts 76°
2026-04-24 15:02 50.09450 -29.33844 30644 ft 533 kts 77°
2026-04-24 15:02 50.11028 -29.22488 30646 ft 533 kts 77°
2026-04-24 15:03 50.12326 -29.13081 30646 ft 533 kts 77°
2026-04-24 15:03 50.14130 -28.99906 30643 ft 533 kts 77°
2026-04-24 15:04 50.15669 -28.88571 30645 ft 533 kts 77°
2026-04-24 15:04 50.17191 -28.77274 30646 ft 533 kts 77°
2026-04-24 15:05 50.18702 -28.65983 30668 ft 530 kts 77°
2026-04-24 15:05 50.20197 -28.54728 30654 ft 524 kts 78°
2026-04-24 15:06 50.21655 -28.43633 30651 ft 524 kts 78°
2026-04-24 15:06 50.23114 -28.32442 30652 ft 524 kts 78°
2026-04-24 15:07 50.24563 -28.21256 30661 ft 524 kts 78°
2026-04-24 15:07 50.25990 -28.10180 30655 ft 518 kts 78°
2026-04-24 15:08 50.27165 -28.00931 30641 ft 523 kts 78°
2026-04-24 15:08 50.28814 -27.87883 30654 ft 524 kts 78°
2026-04-24 15:09 50.29986 -27.78549 30656 ft 524 kts 78°
2026-04-24 15:09 50.31387 -27.67326 30662 ft 520 kts 79°
2026-04-24 15:10 50.32754 -27.56252 30666 ft 519 kts 79°
2026-04-24 15:10 50.34114 -27.45131 30662 ft 519 kts 79°
2026-04-24 15:11 50.35464 -27.34011 30662 ft 519 kts 79°
2026-04-24 15:11 50.36796 -27.22958 30665 ft 516 kts 79°
2026-04-24 15:12 50.38115 -27.11908 30673 ft 514 kts 79°
2026-04-24 15:12 50.40073 -26.95327 30673 ft 515 kts 80°
2026-04-24 15:13 50.41359 -26.84319 30671 ft 515 kts 80°
2026-04-24 15:13 50.42642 -26.73277 30683 ft 510 kts 80°
2026-04-24 15:14 50.43895 -26.62353 30686 ft 510 kts 80°
2026-04-24 15:14 50.45144 -26.51368 30683 ft 510 kts 81°
2026-04-24 15:15 50.46377 -26.40441 30690 ft 510 kts 81°
2026-04-24 15:15 50.47608 -26.29471 30690 ft 505 kts 81°
2026-04-24 15:16 50.48815 -26.18576 30694 ft 504 kts 81°
2026-04-24 15:16 50.50005 -26.07728 30701 ft 504 kts 81°
2026-04-24 15:17 50.51185 -25.96886 30701 ft 504 kts 81°
2026-04-24 15:17 50.52365 -25.85968 30704 ft 502 kts 82°
2026-04-24 15:18 50.53517 -25.75200 30712 ft 501 kts 82°
2026-04-24 15:18 50.54663 -25.64373 30714 ft 501 kts 82°
2026-04-24 15:19 50.55802 -25.53517 30719 ft 501 kts 82°
2026-04-24 15:19 50.56931 -25.42658 30718 ft 500 kts 82°
2026-04-24 15:20 50.58036 -25.31973 30726 ft 495 kts 82°
2026-04-24 15:20 50.59123 -25.21297 30726 ft 494 kts 82°
2026-04-24 15:21 50.60207 -25.10566 30732 ft 494 kts 83°
2026-04-24 15:21 50.61281 -24.99831 30737 ft 494 kts 83°
2026-04-24 15:22 50.62343 -24.89155 30741 ft 492 kts 83°
2026-04-24 15:23 50.63904 -24.73208 30742 ft 491 kts 83°
2026-04-24 15:23 50.65445 -24.57234 30745 ft 491 kts 83°
2026-04-24 15:25 50.67801 -24.32356 30762 ft 491 kts 83°
2026-04-24 15:26 50.70445 -24.03707 30759 ft 496 kts 84°
2026-04-24 15:27 50.73327 -23.71577 30776 ft 492 kts 84°
2026-04-24 15:29 50.76114 -23.39474 30785 ft 488 kts 84°
2026-04-24 15:31 50.79231 -23.02233 30793 ft 486 kts 85°